AEHF-3 (USA 246)

Last updated on Thu Nov 21 2024 00:02:42 GMT+0000 (Coordinated Universal Time)

1 39256U 13050A 24325.45426926 .00000032 00000+0 00000+0 0 9991 2 39256 3.8645 71.8786 0093381 174.3342 213.0429 1.00269381 39900
UTC large
Height (km)
Speed (km/s)
/
Latitude / Longitude
Inclination (degrees)
Orbital Period (minutes)
Azimuth
Elevation
Range (km)
Doppler Factor

Next 0 passes for location: London (51.5072 / 0.1276)

Sorry there are no passes over London.